Regional Weather Roundup
Issued by NWS

Home | Current Version | Previous Version | Graphics & Text | Print | Product List | Glossary On
Versions: 1 2 3 4 5 6 7 8 9 10 11 12 13 14 15 16 17 18 19 20 21 22 23 24 25 26 27 28 29 30 31 32 33 34 35 36 37 38 39 40 41 42 43 44 45 46 47 48 49 50
000
ASUS43 KFSD 050210
RWRSD

WEATHER ROUNDUP FOR SOUTH DAKOTA
NATIONAL WEATHER SERVICE SIOUX FALLS SD
900 PM CDT TUE AUG 04 2015

NOTE: "FAIR" INDICATES FEW OR NO CLOUDS BELOW 12,000 FEET WITH NO
SIGNIFICANT WEATHER AND/OR OBSTRUCTIONS TO VISIBILITY.


SDZ001>005-009-010-012>017-050300-
NORTHWEST AND NORTH CENTRAL SOUTH DAKOTA

CITY           SKY/WX    TMP DP  RH WIND       PRES   REMARKS
BUFFALO          N/A     78  60  53 SE10      29.89R
FAITH            N/A     77  56  48 SE15      29.96R
MOBRIDGE       PTCLDY    76  62  62 SE9       29.94R
$$

SDZ012>016-024>037-041>051-057-063-072>074-050300-
SOUTHWEST AND SOUTH CENTRAL SOUTH DAKOTA

CITY           SKY/WX    TMP DP  RH WIND       PRES   REMARKS
RAPID CTY ARPT MOCLDY    74  60  61 SE5       29.96R
PIERRE         MOCLDY    77  58  51 SE13      29.93R
CUSTER         CLOUDY    65  53  65 W7        30.11S
ELLSWORTH AFB  CLOUDY    76  60  57 SE8       29.95S
PHILIP         CLOUDY    76  66  71 E5        29.95R
PINE RIDGE     CLEAR     71  61  70 E7        29.99R
WINNER         FAIR      75  64  68 SE12      29.95S
$$

SDZ004>011-016>023-039-040-050300-
NORTHEAST SOUTH DAKOTA

CITY           SKY/WX    TMP DP  RH WIND       PRES   REMARKS
ABERDEEN       PTCLDY    72  59  63 E7        29.97R
WATERTOWN      PTCLDY    73  55  53 E5        30.01R
BROOKINGS      PTCLDY    72  57  60 SE8       30.03S
SISSETON         N/A     69  56  62 CALM      29.99R
$$

SDZ017-020-022-023-036>040-048>070-050300-
SOUTHEAST SOUTH DAKOTA

CITY           SKY/WX    TMP DP  RH WIND       PRES   REMARKS
SIOUX FALLS    MOCLDY    71  62  73 E7        29.99S
HURON          MOCLDY    74  61  63 SE8       29.96R
CHAMBERLAIN    MOCLDY    71  64  79 SE7       29.95S
MITCHELL       MOCLDY    70  65  84 E6        29.97S
YANKTON        MOCLDY    72  64  78 E3        29.96R
$$

ABBREVIATIONS USED IN REMARKS
   TC - TEMPERATURE IN CELSIUS
  WCI - WIND CHILL INDEX
   HX - HEAT INDEX
  VSB - VISIBILITY




USA.gov is the U.S. government's official web portal to all federal, state and local government web resources and services.